Regional Weather Roundup
Issued by NWS

Home | Current Version | Previous Version | Text Only | Print | Product List | Glossary Off
Versions: 1 2 3 4 5 6 7 8 9 10 11 12 13 14 15 16 17 18 19 20 21 22 23 24 25 26 27 28 29 30 31 32 33 34 35 36 37 38 39 40 41 42 43 44 45 46 47 48 49 50

000
ASUS43 KFSD 171410
RWRSD

WEATHER ROUNDUP FOR SOUTH DAKOTA
NATIONAL WEATHER SERVICE SIOUX FALLS SD
800 AM CST WED JAN 17 2018

NOTE: "FAIR" INDICATES FEW OR NO CLOUDS BELOW 12,000 FEET WITH NO
SIGNIFICANT WEATHER AND/OR OBSTRUCTIONS TO VISIBILITY.


SDZ001>005-009-010-012>017-171500-
NORTHWEST AND NORTH CENTRAL SOUTH DAKOTA

CITY           SKY/WX    TMP DP  RH WIND       PRES   REMARKS
BUFFALO          N/A     21  12  68 W12       30.12R WCI   9
FAITH            N/A     19   7  59 NW15      30.17R WCI   5
MOBRIDGE       PTCLDY     6   0  76 S6        30.15S WCI  -4
$$

SDZ012>016-024>037-041>051-057-063-072>074-171500-
SOUTHWEST AND SOUTH CENTRAL SOUTH DAKOTA

CITY           SKY/WX    TMP DP  RH WIND       PRES   REMARKS
RAPID CTY ARPT PTCLDY    13   3  64 NW3       30.19R
PIERRE         CLEAR      5   3  91 W7        30.22S WCI  -7
CUSTER         PTCLDY    27 -10  19 NW3       30.18R
ELLSWORTH AFB  PTCLDY    12   2  65 NW9       30.18R WCI  -1
PHILIP         CLEAR      7   3  84 W12       30.23R WCI  -8
PINE RIDGE     CLEAR      9   2  73 W3        30.23R
SPEARFISH        N/A     27   5  39 W6        30.24R WCI  20
WINNER         FAIR      19   7  59 SW9       30.24R WCI   8
$$

SDZ004>011-016>023-039-040-171500-
NORTHEAST SOUTH DAKOTA

CITY           SKY/WX    TMP DP  RH WIND       PRES   REMARKS
ABERDEEN       CLEAR      3  -2  79 S12       30.21F WCI -13
WATERTOWN      CLOUDY     5   0  79 S8        30.22F WCI  -8
BROOKINGS      CLOUDY     4  -1  80 S10       30.27F WCI -11
SISSETON         N/A     16   2  54 SW12      30.15F WCI   3
$$

SDZ017-020-022-023-036>040-048>070-171500-
SOUTHEAST SOUTH DAKOTA

CITY           SKY/WX    TMP DP  RH WIND       PRES   REMARKS
SIOUX FALLS    CLOUDY     9   2  73 S9        30.32F WCI  -4
HURON          CLEAR      5  -1  76 S9        30.27F WCI  -9
CHAMBERLAIN    CLEAR     13   6  74 SW3       30.25R
MITCHELL       CLEAR      5  -1  76 SE7       30.29F WCI  -7
YANKTON        CLOUDY    12   2  64 S7        30.34F WCI   1
$$

ABBREVIATIONS USED IN REMARKS
   TC - TEMPERATURE IN CELSIUS
  WCI - WIND CHILL INDEX
   HX - HEAT INDEX
  VSB - VISIBILITY





USA.gov is the U.S. government's official web portal to all federal, state and local government web resources and services.